IU1JVO-13 Weather Reports


Display with metric or nautical units.
time (UTC)temp
F
wind
direction
speed
MPH
gust
MPH
rain 1hr
in
rain 24hr
in
rain mn
in
humidity
%
barometer
mb
20260904083625 82 158 0.0 2.0 0.00 0.00 0.00 34 1023.8
20260904083322 82 169 0.0 2.0 0.00 0.00 0.00 35 1023.7
20260904082822 81 205 0.0 2.0 0.00 0.00 0.00 36 1023.7
20260904082626 81 213 1.0 2.0 0.00 0.00 0.00 36 1023.6
20260904082322 81 211 0.0 2.0 0.00 0.00 0.00 35 1023.7
20260904081822 81 179 0.0 2.0 0.00 0.00 0.00 35 1023.7
20260904081626 81 166 0.0 2.0 0.00 0.00 0.00 35 1023.8
20260904081549 81 161 0.0 1.0 0.00 0.00 0.00 35 1023.7
20260904080821 81 159 0.0 1.0 0.00 0.00 0.00 35 1023.8
20260904080626 81 147 0.0 1.0 0.00 0.00 0.00 35 1023.8
20260904080321 80 123 0.0 1.0 0.00 0.00 0.00 37 1023.7
20260904075822 75 94 1.0 1.0 0.00 0.00 0.00 43 1023.4
20260904075626 75 94 1.0 1.0 0.00 0.00 0.00 43 1023.5
20260904075321 75 94 1.0 1.0 0.00 0.00 0.00 43 1023.4
20260904074821 75 94 1.0 1.0 0.00 0.00 0.00 43 1023.4
20260904074625 75 94 0.0 1.0 0.00 0.00 0.00 43 1023.4
20260904074558 75 94 0.0 1.0 0.00 0.00 0.00 43 1023.4
20260904073821 75 94 0.0 0.0 0.00 0.00 0.00 43 1023.5
20260904073627 75 94 0.0 0.0 0.00 0.00 0.00 43 1023.4
20260904073321 75 94 0.0 1.0 0.00 0.00 0.00 43 1023.4
20260904072821 75 93 0.0 2.0 0.00 0.00 0.00 43 1023.4
20260904072627 75 92 0.0 2.0 0.00 0.00 0.00 43 1023.4
20260904072322 75 92 0.0 2.0 0.00 0.00 0.00 44 1023.4
20260904071822 73 94 0.0 2.0 0.00 0.00 0.00 45 1023.2
20260904071626 72 93 1.0 2.0 0.00 0.00 0.00 46 1023.2
20260904071551 72 98 1.0 2.0 0.00 0.00 0.00 46 1023.2
20260904070821 72 68 0.0 2.0 0.00 0.00 0.00 45 1023.1
20260904070626 73 55 0.0 2.0 0.00 0.00 0.00 46 1023.2
20260904070320 73 34 0.0 0.0 0.00 0.00 0.00 47 1023.1
20260904070048 72 31 0.0 1.0 0.00 0.00 0.00 49 1023.2
20260904065626 71 30 0.0 1.0 0.00 0.00 0.00 48 1023.1
20260904065547 71 29 0.0 1.0 0.00 0.00 0.00 48 1023.1
20260904064818 70 27 0.0 4.0 0.00 0.00 0.00 50 1023.0
20260904064627 69 27 0.0 4.0 0.00 0.00 0.00 50 1023.0
20260904064549 69 26 0.0 4.0 0.00 0.00 0.00 51 1022.9
20260904063816 68 12 1.0 4.0 0.00 0.00 0.00 50 1023.1
20260904063627 68 335 2.0 4.0 0.00 0.00 0.00 49 1023.0
20260904063316 68 263 3.0 4.0 0.00 0.00 0.00 49 1023.0
20260904062817 70 250 4.0 4.0 0.00 0.00 0.00 43 1023.1
20260904062629 70 250 4.0 4.0 0.00 0.00 0.00 43 1023.1
20260904062548 70 250 4.0 4.0 0.00 0.00 0.00 43 1023.1
20260904061815 70 250 4.0 4.0 0.00 0.00 0.00 43 1023.1
20260904061626 70 250 4.0 4.0 0.00 0.00 0.00 43 1023.0
20260904061316 70 250 4.0 4.0 0.00 0.00 0.00 43 1023.0
20260904060816 70 250 4.0 4.0 0.00 0.00 0.00 43 1022.9
20260904060626 70 250 4.0 4.0 0.00 0.00 0.00 43 1022.8
20260904060546 70 250 4.0 4.0 0.00 0.00 0.00 43 1022.8
20260904060044 70 250 4.0 4.0 0.00 0.00 0.00 43 1022.8
20260904055625 70 250 4.0 4.0 0.00 0.00 0.00 43 1022.8
20260904055317 70 250 4.0 4.0 0.00 0.00 0.00 43 1022.8
20260904054818 70 250 4.0 4.0 0.00 0.00 0.00 43 1022.8
20260904054625 70 250 4.0 4.0 0.00 0.00 0.00 43 1022.8
20260904054316 70 252 4.0 4.0 0.00 0.00 0.00 43 1022.8
20260904053816 70 270 3.0 4.0 0.00 0.00 0.00 43 1022.8
20260904053626 70 276 3.0 4.0 0.00 0.00 0.00 43 1022.8
20260904053316 70 285 3.0 3.0 0.00 0.00 0.00 43 1022.8
20260904052816 70 285 3.0 3.0 0.00 0.00 0.00 43 1022.6
20260904052625 70 285 3.0 3.0 0.00 0.00 0.00 43 1022.6
20260904052316 70 285 3.0 3.0 0.00 0.00 0.00 43 1022.6
20260904051817 70 285 3.0 3.0 0.00 0.00 0.00 43 1022.6
20260904051626 70 285 3.0 4.0 0.00 0.00 0.00 43 1022.6
20260904051316 70 285 3.0 5.0 0.00 0.00 0.00 43 1022.6
20260904051043 70 285 3.0 5.0 0.00 0.00 0.00 43 1022.6
20260904050626 70 285 3.0 5.0 0.00 0.00 0.00 43 1022.6
20260904050315 70 280 2.0 5.0 0.00 0.00 0.00 43 1022.6
20260904045816 70 282 1.0 5.0 0.00 0.00 0.00 43 1022.6
20260904045627 69 294 0.0 5.0 0.00 0.00 0.00 43 1022.6
20260904045324 69 335 1.0 4.0 0.00 0.00 0.00 44 1022.5
20260904045317 70 320 1.0 4.0 0.00 0.00 0.00 44 1022.5
20260904044627 68 346 1.0 4.0 0.00 0.00 0.00 46 1022.4
20260904044316 67 174 0.0 3.0 0.00 0.00 0.00 50 1022.4
20260904043815 68 214 0.0 4.0 0.00 0.00 0.00 48 1022.5
20260904043627 68 242 0.0 4.0 0.00 0.00 0.00 48 1022.5
20260904043313 69 279 0.0 4.0 0.00 0.00 0.00 47 1022.6
20260904042812 69 305 1.0 4.0 0.00 0.00 0.00 45 1022.7
20260904042625 69 311 1.0 4.0 0.00 0.00 0.00 45 1022.7
20260904042312 69 319 1.0 4.0 0.00 0.00 0.00 44 1022.6
20260904041812 69 283 1.0 4.0 0.00 0.00 0.00 43 1022.6
20260904041626 69 258 0.0 4.0 0.00 0.00 0.00 45 1022.6
20260904041312 69 237 0.0 4.0 0.00 0.00 0.00 47 1022.6
20260904041045 70 292 0.0 4.0 0.00 0.00 0.00 44 1022.6
20260904040630 70 316 0.0 4.0 0.00 0.00 0.00 43 1022.6
20260904040543 70 328 1.0 4.0 0.00 0.00 0.00 44 1022.5
20260904035811 69 289 0.0 3.0 0.00 0.00 0.00 45 1022.5
20260904035626 68 295 1.0 3.0 0.00 0.00 0.00 46 1022.5
20260904035310 68 304 1.0 4.0 0.00 0.00 0.00 49 1022.4
20260904034810 68 303 0.0 4.0 0.00 0.00 0.00 48 1022.5
20260904034626 68 291 1.0 4.0 0.00 0.00 0.00 47 1022.5
20260904034310 68 303 0.0 4.0 0.00 0.00 0.00 49 1022.6
20260904033810 67 157 0.0 4.0 0.00 0.00 0.00 49 1022.7
20260904033626 67 162 0.0 4.0 0.00 0.00 0.00 49 1022.6
20260904033310 66 196 0.0 0.0 0.00 0.00 0.00 52 1022.7
20260904032808 67 30 0.0 0.0 0.00 0.00 0.00 53 1022.6
20260904032625 67 34 0.0 0.0 0.00 0.00 0.00 52 1022.7
20260904032306 67 35 0.0 0.0 0.00 0.00 0.00 51 1022.7
20260904031804 67 18 0.0 0.0 0.00 0.00 0.00 49 1022.8
20260904031626 67 13 0.0 0.0 0.00 0.00 0.00 49 1022.6
20260904031303 67 7 0.0 0.0 0.00 0.00 0.00 52 1022.7
20260904030804 66 334 0.0 0.0 0.00 0.00 0.00 51 1022.8
20260904030627 66 312 0.0 0.0 0.00 0.00 0.00 53 1022.7
20260904030304 66 273 0.0 0.0 0.00 0.00 0.00 51 1022.7
20260904025802 66 243 0.0 0.0 0.00 0.00 0.00 54 1022.8
20260904025628 66 233 0.0 0.0 0.00 0.00 0.00 54 1022.8
20260904025305 67 214 0.0 0.0 0.00 0.00 0.00 53 1022.8
20260904025033 67 215 0.0 0.0 0.00 0.00 0.00 52 1022.7
20260904024627 67 217 0.0 0.0 0.00 0.00 0.00 53 1022.7
20260904024303 67 222 0.0 0.0 0.00 0.00 0.00 52 1022.8
20260904023801 67 190 0.0 0.0 0.00 0.00 0.00 53 1023.2
20260904023625 67 164 0.0 0.0 0.00 0.00 0.00 53 1023.1
20260904023301 67 61 0.0 0.0 0.00 0.00 0.00 53 1023.2
20260904022759 67 16 0.0 0.0 0.00 0.00 0.00 52 1023.1
20260904022625 67 12 0.0 0.0 0.00 0.00 0.00 52 1023.1
20260904022258 68 8 0.0 0.0 0.00 0.00 0.00 50 1023.0
20260904021757 68 272 0.0 0.0 0.00 0.00 0.00 50 1023.0
20260904021626 68 240 0.0 0.0 0.00 0.00 0.00 49 1023.0
20260904021529 67 220 0.0 0.0 0.00 0.00 0.00 53 1023.1
20260904020758 67 220 0.0 0.0 0.00 0.00 0.00 52 1023.1
20260904020627 68 220 0.0 0.0 0.00 0.00 0.00 52 1023.0
20260904020303 68 224 0.0 0.0 0.00 0.00 0.00 51 1022.9
20260904015756 68 290 0.0 0.0 0.00 0.00 0.00 50 1023.1
20260904015626 68 314 0.0 0.0 0.00 0.00 0.00 50 1023.1
20260904015525 68 337 0.0 0.0 0.00 0.00 0.00 48 1023.0
20260904014756 68 337 0.0 0.0 0.00 0.00 0.00 51 1023.0
20260904014630 68 337 0.0 0.0 0.00 0.00 0.00 51 1023.0
20260904014255 68 326 0.0 1.0 0.00 0.00 0.00 53 1023.0
20260904013756 68 272 0.0 1.0 0.00 0.00 0.00 52 1023.5
20260904013625 68 257 0.0 1.0 0.00 0.00 0.00 52 1023.4
20260904013256 69 241 0.0 1.0 0.00 0.00 0.00 51 1023.5
20260904012755 69 275 0.0 1.0 0.00 0.00 0.00 51 1023.4
20260904012625 69 299 0.0 1.0 0.00 0.00 0.00 50 1023.4
20260904012256 70 337 0.0 1.0 0.00 0.00 0.00 50 1023.5
20260904011756 70 344 0.0 2.0 0.00 0.00 0.00 47 1023.6
20260904011626 70 345 0.0 2.0 0.00 0.00 0.00 48 1023.5
20260904011255 70 354 0.0 2.0 0.00 0.00 0.00 48 1023.6
20260904010759 70 350 0.0 2.0 0.00 0.00 0.00 47 1023.6
20260904010624 70 329 0.0 2.0 0.00 0.00 0.00 47 1023.7
20260904010255 70 330 0.0 2.0 0.00 0.00 0.00 48 1023.6
20260904005755 70 359 1.0 2.0 0.00 0.00 0.00 48 1023.6
20260904005621 70 7 1.0 1.0 0.00 0.00 0.00 46 1023.6
20260904005256 70 344 1.0 1.0 0.00 0.00 0.00 45 1023.6
20260904004756 70 226 0.0 1.0 0.00 0.00 0.00 46 1023.6
20260904004622 70 219 0.0 1.0 0.00 0.00 0.00 46 1023.5
20260904004256 69 217 0.0 1.0 0.00 0.00 0.00 47 1023.5
20260904003757 69 217 0.0 1.0 0.00 0.00 0.00 48 1023.5
20260904003622 70 217 0.0 1.0 0.00 0.00 0.00 47 1023.6
20260904003257 70 217 0.0 1.0 0.00 0.00 0.00 48 1023.5
20260904002757 70 217 0.0 1.0 0.00 0.00 0.00 48 1023.7
20260904002621 70 217 0.0 1.0 0.00 0.00 0.00 47 1023.7
20260904002258 70 216 0.0 1.0 0.00 0.00 0.00 47 1023.6
20260904001755 70 128 0.0 1.0 0.00 0.00 0.00 49 1023.6
20260904001623 70 91 0.0 1.0 0.00 0.00 0.00 49 1023.7
20260904001256 70 70 0.0 2.0 0.00 0.00 0.00 48 1023.7
20260904000756 70 70 0.0 2.0 0.00 0.00 0.00 48 1023.6
20260904000620 70 69 0.0 2.0 0.00 0.00 0.00 48 1023.7
20260904000259 70 56 0.0 2.0 0.00 0.00 0.00 47 1023.7
20260903235754 71 14 0.0 2.0 0.00 0.00 0.00 47 1023.7
20260903235619 71 350 0.0 2.0 0.00 0.00 0.00 47 1023.7
20260903235251 71 328 0.0 2.0 0.00 0.00 0.00 47 1023.6
20260903234749 72 356 0.0 2.0 0.00 0.00 0.00 46 1023.8
20260903234619 72 7 0.0 2.0 0.00 0.00 0.00 43 1023.8
20260903234246 72 18 0.0 4.0 0.00 0.00 0.00 42 1023.8
20260903233745 73 29 1.0 4.0 0.00 0.00 0.00 43 1023.8
20260903233618 73 31 1.0 4.0 0.00 0.00 0.00 42 1023.8
20260903233518 72 36 1.0 4.0 0.00 0.00 0.00 42 1023.8
20260903232746 72 37 1.0 4.0 0.00 0.00 0.00 43 1023.8
20260903232619 72 34 1.0 4.0 0.00 0.00 0.00 43 1023.9
20260903232246 72 26 1.0 2.0 0.00 0.00 0.00 44 1023.7
20260903232016 73 336 0.0 3.0 0.00 0.00 0.00 43 1023.6
20260903231621 73 320 0.0 3.0 0.00 0.00 0.00 43 1023.6
20260903231247 73 292 0.0 3.0 0.00 0.00 0.00 43 1023.6
20260903230746 73 311 0.0 4.0 0.00 0.00 0.00 43 1023.7
20260903230615 73 327 0.0 4.0 0.00 0.00 0.00 43 1023.8
20260903230246 74 358 0.0 4.0 0.00 0.00 0.00 42 1023.9
20260903225746 74 2 0.0 4.0 0.00 0.00 0.00 41 1023.7
20260903225616 74 10 1.0 4.0 0.00 0.00 0.00 41 1023.7
20260903225246 74 6 1.0 4.0 0.00 0.00 0.00 41 1023.8
20260903224745 74 344 1.0 4.0 0.00 0.00 0.00 42 1023.8
20260903224616 74 334 0.0 4.0 0.00 0.00 0.00 41 1023.8
20260903224244 74 324 1.0 4.0 0.00 0.00 0.00 41 1023.9
20260903224021 74 5 0.0 4.0 0.00 0.00 0.00 43 1023.9
20260903223612 73 20 0.0 4.0 0.00 0.00 0.00 42 1023.8
20260903223243 73 44 0.0 2.0 0.00 0.00 0.00 44 1023.7
20260903222743 74 29 0.0 3.0 0.00 0.00 0.00 43 1023.9
20260903222611 74 25 1.0 3.0 0.00 0.00 0.00 43 1023.8
20260903222244 74 13 1.0 3.0 0.00 0.00 0.00 42 1023.8
20260903221744 74 8 1.0 3.0 0.00 0.00 0.00 42 1023.8
20260903221612 74 10 1.0 3.0 0.00 0.00 0.00 42 1023.9
20260903221508 74 11 1.0 3.0 0.00 0.00 0.00 43 1023.8
20260903220742 74 0 0.0 4.0 0.00 0.00 0.00 44 1023.9
20260903220610 74 350 0.0 4.0 0.00 0.00 0.00 44 1023.9
20260903220454 74 337 1.0 4.0 0.00 0.00 0.00 43 1023.9
20260903215611 75 338 2.0 4.0 0.00 0.00 0.00 42 1024.1
20260903215241 75 341 2.0 4.0 0.00 0.00 0.00 42 1024.2
20260903214759 75 290 1.0 4.0 0.00 0.00 0.00 43 1024.1
20260903214749 75 314 2.0 4.0 0.00 0.00 0.00 43 1024.1
20260903214736 75 301 2.0 4.0 0.00 0.00 0.00 42 1024.1
20260903213741 75 312 1.0 4.0 0.00 0.00 0.00 42 1023.9
20260903213610 75 330 1.0 4.0 0.00 0.00 0.00 42 1023.9
20260903213252 75 350 1.0 4.0 0.00 0.00 0.00 43 1023.9
20260903213241 75 333 1.0 4.0 0.00 0.00 0.00 42 1023.9
20260903212607 75 345 1.0 4.0 0.00 0.00 0.00 43 1023.9
20260903212511 75 338 1.0 4.0 0.00 0.00 0.00 43 1023.9
20260903211741 75 305 1.0 4.0 0.00 0.00 0.00 44 1023.8
20260903211608 75 296 1.0 4.0 0.00 0.00 0.00 44 1023.9
20260903211512 75 301 1.0 4.0 0.00 0.00 0.00 44 1023.8
20260903211010 74 313 0.0 3.0 0.00 0.00 0.00 46 1023.8
20260903210607 74 331 0.0 4.0 0.00 0.00 0.00 48 1023.8
20260903210239 74 7 0.0 4.0 0.00 0.00 0.00 49 1023.8
20260903205738 75 3 0.0 4.0 0.00 0.00 0.00 49 1023.8
20260903205610 75 0 1.0 4.0 0.00 0.00 0.00 49 1023.8
20260903205236 75 341 1.0 4.0 0.00 0.00 0.00 47 1023.9
20260903205013 75 342 2.0 8.0 0.00 0.00 0.00 47 1023.9
20260903204610 75 335 1.0 8.0 0.00 0.00 0.00 47 1023.9
20260903204237 75 329 1.0 8.0 0.00 0.00 0.00 47 1024.1
20260903203745 76 307 2.0 8.0 0.00 0.00 0.00 47 1023.9
20260903203740 76 319 2.0 8.0 0.00 0.00 0.00 47 1023.9
20260903203732 76 316 2.0 8.0 0.00 0.00 0.00 47 1023.9
20260903202735 76 299 2.0 6.0 0.00 0.00 0.00 48 1023.8
20260903202606 76 298 2.0 6.0 0.00 0.00 0.00 48 1023.9
20260903202235 76 306 1.0 5.0 0.00 0.00 0.00 48 1023.8
20260903201737 76 311 2.0 8.0 0.00 0.00 0.00 48 1023.8
20260903201606 76 304 2.0 8.0 0.00 0.00 0.00 49 1023.8
20260903201235 76 293 2.0 8.0 0.00 0.00 0.00 49 1023.9
20260903200736 76 294 3.0 8.0 0.00 0.00 0.00 48 1023.9
20260903200607 76 300 3.0 8.0 0.00 0.00 0.00 48 1023.9
20260903200235 76 298 2.0 8.0 0.00 0.00 0.00 49 1024.1
20260903200008 76 299 2.0 5.0 0.00 0.00 0.00 50 1023.7
20260903195607 76 300 1.0 5.0 0.00 0.00 0.00 50 1023.7
20260903195236 76 302 1.0 5.0 0.00 0.00 0.00 50 1023.8
20260903194737 76 282 1.0 5.0 0.00 0.00 0.00 51 1023.7
20260903194607 76 276 1.0 5.0 0.00 0.00 0.00 51 1023.8
20260903194509 76 280 0.0 5.0 0.00 0.00 0.00 52 1023.8
20260903194009 76 307 0.0 5.0 0.00 0.00 0.00 51 1023.7
20260903193607 77 306 0.0 5.0 0.00 0.00 0.00 50 1023.7
20260903193511 77 303 1.0 5.0 0.00 0.00 0.00 50 1023.8
20260903193004 77 292 1.0 5.0 0.00 0.00 0.00 50 1023.8
20260903192607 77 297 1.0 5.0 0.00 0.00 0.00 50 1023.7
20260903192236 77 296 0.0 3.0 0.00 0.00 0.00 51 1023.7
20260903191738 76 291 0.0 2.0 0.00 0.00 0.00 52 1023.5
20260903191608 78 289 0.0 3.0 0.00 0.00 0.00 50 1023.6
20260903191237 78 289 0.0 4.0 0.00 0.00 0.00 50 1023.6
20260903191004 78 289 0.0 4.0 0.00 0.00 0.00 50 1023.5
20260903190607 78 287 0.0 4.0 0.00 0.00 0.00 50 1023.5
20260903190235 78 279 1.0 4.0 0.00 0.00 0.00 50 1023.5
20260903185736 78 273 1.0 4.0 0.00 0.00 0.00 50 1023.4
20260903185606 78 274 0.0 4.0 0.00 0.00 0.00 50 1023.5
20260903185235 78 279 0.0 3.0 0.00 0.00 0.00 50 1023.4
20260903184742 78 287 1.0 3.0 0.00 0.00 0.00 49 1023.4
20260903184727 78 289 1.0 3.0 0.00 0.00 0.00 49 1023.4
20260903183737 78 286 1.0 3.0 0.00 0.00 0.00 50 1023.4
20260903183606 78 280 1.0 3.0 0.00 0.00 0.00 50 1023.3
20260903183236 77 263 0.0 3.0 0.00 0.00 0.00 51 1023.4
20260903182735 77 253 0.0 1.0 0.00 0.00 0.00 52 1023.3
20260903182607 77 252 0.0 1.0 0.00 0.00 0.00 52 1023.3
20260903182233 77 250 0.0 1.0 0.00 0.00 0.00 53 1023.2
20260903182003 78 248 0.0 1.0 0.00 0.00 0.00 52 1023.1
20260903181608 78 248 0.0 1.0 0.00 0.00 0.00 52 1023.1
20260903181232 78 248 0.0 1.0 0.00 0.00 0.00 53 1023.2
20260903180731 79 250 0.0 0.0 0.00 0.00 0.00 51 1023.2
20260903180608 79 250 0.0 0.0 0.00 0.00 0.00 51 1023.2
20260903180232 79 251 0.0 0.0 0.00 0.00 0.00 50 1023.1
20260903175731 80 220 0.0 0.0 0.00 0.00 0.00 50 1023.2
20260903175607 80 210 0.0 0.0 0.00 0.00 0.00 50 1023.2
20260903175231 81 189 0.0 0.0 0.00 0.00 0.00 47 1023.1
20260903174731 81 190 0.0 0.0 0.00 0.00 0.00 47 1023.0
20260903174607 81 195 0.0 0.0 0.00 0.00 0.00 47 1023.0
20260903174232 81 210 0.0 0.0 0.00 0.00 0.00 47 1023.0
20260903173731 82 233 0.0 0.0 0.00 0.00 0.00 46 1023.0
20260903173608 82 240 0.0 0.0 0.00 0.00 0.00 46 1022.9
20260903173232 82 258 0.0 0.0 0.00 0.00 0.00 46 1023.1
20260903172733 84 278 0.0 0.0 0.00 0.00 0.00 41 1023.0
20260903172606 84 278 0.0 0.0 0.00 0.00 0.00 41 1023.0
20260903172230 84 278 0.0 1.0 0.00 0.00 0.00 41 1023.0
20260903171729 84 279 0.0 4.0 0.00 0.00 0.00 41 1022.9
20260903171606 84 279 0.0 4.0 0.00 0.00 0.00 41 1022.8
20260903171227 84 280 0.0 5.0 0.00 0.00 0.00 41 1022.8
20260903170726 84 300 1.0 5.0 0.00 0.00 0.00 41 1022.8
20260903170608 84 307 2.0 5.0 0.00 0.00 0.00 41 1022.8
20260903170225 85 331 2.0 7.0 0.00 0.00 0.00 41 1022.8
20260903165726 85 329 2.0 8.0 0.00 0.00 0.00 40 1022.7
20260903165607 85 324 2.0 8.0 0.00 0.00 0.00 40 1022.7
20260903165229 85 298 2.0 8.0 0.00 0.00 0.00 39 1022.7
20260903164727 86 235 2.0 8.0 0.00 0.00 0.00 39 1022.7
20260903164607 86 231 2.0 8.0 0.00 0.00 0.00 39 1022.7
20260903164224 86 222 2.0 8.0 0.00 0.00 0.00 39 1022.6
20260903163956 86 277 3.0 7.0 0.00 0.00 0.00 39 1022.6
20260903163607 86 276 3.0 7.0 0.00 0.00 0.00 39 1022.6
20260903163222 86 287 3.0 7.0 0.00 0.00 0.00 38 1022.6
20260903162721 87 299 2.0 6.0 0.00 0.00 0.00 38 1022.5
20260903162607 87 309 2.0 6.0 0.00 0.00 0.00 38 1022.7
20260903162222 87 308 1.0 5.0 0.00 0.00 0.00 37 1022.6
20260903161720 87 265 2.0 5.0 0.00 0.00 0.00 37 1022.6
20260903161607 87 223 2.0 5.0 0.00 0.00 0.00 37 1022.6
20260903161232 87 95 2.0 8.0 0.00 0.00 0.00 37 1022.6
20260903161223 87 111 2.0 8.0 0.00 0.00 0.00 37 1022.6
20260903160607 87 77 2.0 8.0 0.00 0.00 0.00 38 1022.6
20260903160221 87 265 2.0 8.0 0.00 0.00 0.00 38 1022.7
20260903160000 87 172 2.0 8.0 0.00 0.00 0.00 38 1022.8
20260903155607 87 167 2.0 8.0 0.00 0.00 0.00 37 1022.7
20260903155221 87 175 2.0 6.0 0.00 0.00 0.00 38 1022.8
20260903154721 87 175 2.0 6.0 0.00 0.00 0.00 38 1022.9
20260903154610 87 178 2.0 6.0 0.00 0.00 0.00 38 1022.8
20260903154222 88 140 2.0 6.0 0.00 0.00 0.00 38 1022.8
20260903154000 88 160 2.0 8.0 0.00 0.00 0.00 38 1022.9
20260903153607 88 50 1.0 8.0 0.00 0.00 0.00 38 1022.9
20260903153221 88 276 2.0 8.0 0.00 0.00 0.00 37 1022.7
20260903152721 89 276 2.0 8.0 0.00 0.00 0.00 37 1022.8
20260903152607 89 265 2.0 8.0 0.00 0.00 0.00 37 1022.8
20260903152221 89 255 2.0 8.0 0.00 0.00 0.00 37 1022.8
20260903151720 90 245 1.0 6.0 0.00 0.00 0.00 36 1022.9
20260903151607 90 239 1.0 6.0 0.00 0.00 0.00 36 1022.9
20260903151219 90 258 2.0 6.0 0.00 0.00 0.00 37 1022.8
20260903150719 89 254 2.0 7.0 0.00 0.00 0.00 37 1022.8
20260903150606 89 247 2.0 7.0 0.00 0.00 0.00 37 1022.8
20260903150221 89 265 1.0 7.0 0.00 0.00 0.00 37 1022.7
20260903145720 89 321 2.0 7.0 0.00 0.00 0.00 38 1022.7
20260903145607 89 340 2.0 8.0 0.00 0.00 0.00 38 1022.7
20260903145219 89 312 2.0 8.0 0.00 0.00 0.00 38 1022.8
20260903144953 89 325 2.0 8.0 0.00 0.00 0.00 38 1022.8
20260903144606 89 296 2.0 8.0 0.00 0.00 0.00 38 1022.9
20260903144452 89 36 2.0 8.0 0.00 0.00 0.00 38 1023.0
20260903143715 89 39 2.0 8.0 0.00 0.00 0.00 38 1023.0
20260903143609 89 33 2.0 8.0 0.00 0.00 0.00 38 1023.0
20260903143214 89 305 2.0 8.0 0.00 0.00 0.00 38 1023.0
20260903142714 89 331 3.0 9.0 0.00 0.00 0.00 38 1023.0
20260903142607 89 322 3.0 9.0 0.00 0.00 0.00 38 1022.9
20260903142218 89 7 2.0 9.0 0.00 0.00 0.00 38 1023.0
20260903141712 89 94 2.0 12.0 0.00 0.00 0.00 38 1023.0
20260903141607 89 5 2.0 12.0 0.00 0.00 0.00 38 1023.0
20260903141441 89 316 2.0 12.0 0.00 0.00 0.00 38 1023.0
20260903140712 89 0 2.0 12.0 0.00 0.00 0.00 38 1023.0
20260903140607 89 34 2.0 12.0 0.00 0.00 0.00 38 1023.0
20260903140211 89 156 3.0 12.0 0.00 0.00 0.00 38 1023.0
20260903135709 89 226 3.0 9.0 0.00 0.00 0.00 38 1023.0
20260903135607 89 245 3.0 9.0 0.00 0.00 0.00 38 1023.1
20260903135210 89 224 2.0 9.0 0.00 0.00 0.00 38 1023.2
20260903134710 89 321 2.0 9.0 0.00 0.00 0.00 38 1023.1
20260903134606 89 298 2.0 9.0 0.00 0.00 0.00 38 1023.1
20260903134437 89 323 2.0 12.0 0.00 0.00 0.00 37 1023.1
20260903133706 88 313 2.0 12.0 0.00 0.00 0.00 37 1023.0
20260903133607 88 309 2.0 12.0 0.00 0.00 0.00 37 1023.1
20260903133206 88 306 2.0 12.0 0.00 0.00 0.00 37 1023.0
20260903132942 88 227 4.0 12.0 0.00 0.00 0.00 37 1023.0
20260903132607 88 239 4.0 12.0 0.00 0.00 0.00 37 1023.0
20260903132433 88 225 4.0 12.0 0.00 0.00 0.00 37 1023.0
20260903131941 88 228 3.0 10.0 0.00 0.00 0.00 37 1023.1
20260903131607 89 226 3.0 10.0 0.00 0.00 0.00 37 1022.9
20260903131206 89 214 2.0 8.0 0.00 0.00 0.00 37 1023.2
20260903130704 88 215 3.0 8.0 0.00 0.00 0.00 37 1023.1
20260903130609 88 216 3.0 8.0 0.00 0.00 0.00 37 1023.1
20260903130438 88 226 4.0 8.0 0.00 0.00 0.00 38 1023.0
20260903125701 88 243 3.0 10.0 0.00 0.00 0.00 37 1023.1
20260903125608 88 240 3.0 10.0 0.00 0.00 0.00 37 1023.2
20260903125202 88 238 3.0 10.0 0.00 0.00 0.00 37 1023.1
20260903124702 88 254 3.0 10.0 0.00 0.00 0.00 35 1023.1
20260903124607 88 258 3.0 10.0 0.00 0.00 0.00 35 1023.0
20260903124202 88 229 4.0 10.0 0.00 0.00 0.00 36 1022.8
20260903123701 88 219 4.0 10.0 0.00 0.00 0.00 35 1022.7
20260903123607 88 220 4.0 10.0 0.00 0.00 0.00 35 1022.7
20260903123201 87 238 3.0 10.0 0.00 0.00 0.00 35 1022.9
20260903122701 88 307 3.0 10.0 0.00 0.00 0.00 34 1022.8
20260903122607 88 304 3.0 9.0 0.00 0.00 0.00 34 1023.0
20260903122201 87 309 3.0 9.0 0.00 0.00 0.00 34 1023.0
20260903121701 88 276 3.0 9.0 0.00 0.00 0.00 33 1023.0
20260903121607 88 282 3.0 9.0 0.00 0.00 0.00 33 1023.0
20260903121200 88 296 2.0 10.0 0.00 0.00 0.00 34 1023.1
20260903120657 88 272 3.0 10.0 0.00 0.00 0.00 34 1022.9
20260903120606 88 260 3.0 10.0 0.00 0.00 0.00 33 1022.9
20260903120158 87 220 4.0 12.0 0.00 0.00 0.00 33 1022.9
20260903115658 86 200 4.0 12.0 0.00 0.00 0.00 33 1023.0
20260903115607 86 192 4.0 12.0 0.00 0.00 0.00 34 1023.1
20260903115158 86 133 5.0 12.0 0.00 0.00 0.00 35 1023.0
20260903114658 85 104 4.0 12.0 0.00 0.00 0.00 33 1023.1
20260903114608 85 85 4.0 12.0 0.00 0.00 0.00 34 1023.2
20260903114156 86 171 3.0 9.0 0.00 0.00 0.00 34 1022.9
20260903113656 85 151 3.0 12.0 0.00 0.00 0.00 35 1022.8
20260903113608 85 151 3.0 12.0 0.00 0.00 0.00 35 1022.8
20260903113156 85 135 3.0 12.0 0.00 0.00 0.00 34 1022.9
20260903112656 85 344 4.0 12.0 0.00 0.00 0.00 33 1023.0
20260903112609 85 343 4.0 12.0 0.00 0.00 0.00 33 1023.0
20260903112156 84 31 4.0 12.0 0.00 0.00 0.00 34 1022.9
20260903111656 84 61 4.0 9.0 0.00 0.00 0.00 36 1023.0
20260903111606 84 56 4.0 9.0 0.00 0.00 0.00 36 1023.0
20260903111156 84 55 4.0 9.0 0.00 0.00 0.00 33 1023.0
20260903110651 84 84 3.0 8.0 0.00 0.00 0.00 37 1023.1
20260903110606 84 91 3.0 8.0 0.00 0.00 0.00 38 1023.1
20260903110151 84 120 3.0 8.0 0.00 0.00 0.00 35 1023.3
20260903105651 84 162 2.0 10.0 0.00 0.00 0.00 35 1023.3
20260903105607 84 164 2.0 10.0 0.00 0.00 0.00 35 1023.3
20260903105200 83 109 3.0 10.0 0.00 0.00 0.00 39 1023.4
20260903105155 83 135 3.0 10.0 0.00 0.00 0.00 37 1023.3
20260903104607 83 124 3.0 10.0 0.00 0.00 0.00 39 1023.4
20260903104151 83 45 2.0 10.0 0.00 0.00 0.00 40 1023.5
20260903103651 82 64 2.0 6.0 0.00 0.00 0.00 40 1023.5
20260903103607 82 54 2.0 6.0 0.00 0.00 0.00 40 1023.5
20260903103151 82 57 3.0 6.0 0.00 0.00 0.00 41 1023.6
20260903102928 82 7 2.0 7.0 0.00 0.00 0.00 43 1023.7
20260903102608 82 2 2.0 7.0 0.00 0.00 0.00 43 1023.7
20260903102152 82 16 2.0 9.0 0.00 0.00 0.00 43 1023.8
20260903101651 81 66 3.0 9.0 0.00 0.00 0.00 43 1023.7
20260903101607 81 63 4.0 9.0 0.00 0.00 0.00 39 1023.7
20260903101151 81 57 3.0 9.0 0.00 0.00 0.00 39 1023.7
20260903100650 82 345 3.0 9.0 0.00 0.00 0.00 39 1023.8
20260903100607 82 335 3.0 9.0 0.00 0.00 0.00 39 1023.8
20260903100148 81 315 3.0 8.0 0.00 0.00 0.00 37 1023.8
20260903095915 81 96 2.0 6.0 0.00 0.00 0.00 35 1023.8
20260903095606 81 86 2.0 6.0 0.00 0.00 0.00 35 1023.8
20260903095420 81 92 2.0 6.0 0.00 0.00 0.00 32 1023.8
20260903094646 81 87 2.0 5.0 0.00 0.00 0.00 29 1024.1
20260903094607 80 87 2.0 5.0 0.00 0.00 0.00 26 1024.1
20260903094414 80 97 2.0 5.0 0.00 0.00 0.00 23 1024.2
20260903093645 80 98 2.0 5.0 0.00 0.00 0.00 24 1024.4
20260903093604 80 100 2.0 5.0 0.00 0.00 0.00 24 1024.4
20260903093146 80 113 2.0 5.0 0.00 0.00 0.00 25 1024.2
20260903092645 80 156 2.0 4.0 0.00 0.00 0.00 28 1024.3
20260903092605 80 158 1.0 4.0 0.00 0.00 0.00 28 1024.3
20260903092147 80 146 0.0 4.0 0.00 0.00 0.00 28 1024.3
20260903091646 79 107 1.0 4.0 0.00 0.00 0.00 28 1024.3
20260903091611 79 105 1.0 4.0 0.00 0.00 0.00 28 1024.4
20260903091145 80 104 1.0 5.0 0.00 0.00 0.00 28 1024.4
20260903090646 79 97 1.0 5.0 0.00 0.00 0.00 27 1024.3
20260903090605 79 100 1.0 5.0 0.00 0.00 0.00 27 1024.3
20260903090146 79 85 2.0 5.0 0.00 0.00 0.00 27 1024.3
20260903085915 79 213 2.0 5.0 0.00 0.00 0.00 27 1024.3
20260903085602 79 210 2.0 5.0 0.00 0.00 0.00 28 1024.3
20260903085148 79 203 2.0 4.0 0.00 0.00 0.00 28 1024.2
20260903084646 79 201 1.0 4.0 0.00 0.00 0.00 27 1024.1
20260903084603 79 202 1.0 4.0 0.00 0.00 0.00 27 1024.1
20260903084146 80 221 1.0 4.0 0.00 0.00 0.00 25 1024.3